Printer-friendly version
Follow the MPC on Twitter Follow the MPC on Facebook The MPC blog
Minor Planet Center

MPEC 2010-A02 : 2005 CV38

The following Minor Planet Electronic Circular may be linked-to from your own Web pages, but must not otherwise be redistributed electronically.

A form allowing access to any MPEC is at the bottom of this page.


Read MPEC 2010-A01 Read MPEC 2010-A03


M.P.E.C. 2010-A02                                Issued 2010 Jan. 2, 17:52 UT

     The Minor Planet Electronic Circulars contain information on unusual
         minor planets and routine data on comets.  They are published
   on behalf of Commission 20 of the International Astronomical Union by the
          Minor Planet Center, Smithsonian Astrophysical Observatory,
                          Cambridge, MA 02138, U.S.A.

             Prepared using the Tamkin Foundation Computer Network

                              MPC@CFA.HARVARD.EDU
          URL http://www.cfa.harvard.edu/iau/mpc.html  ISSN 1523-6714

                                   2005 CV38

                           Revision to MPEC 2005-C45

Additional Observations:
     K05C38V 2C2009 12 09.41903605 31 30.247+03 07 45.22         22.6 R EA002568
     K05C38V 2C2009 12 09.42895105 31 29.387+03 07 44.09         22.5 R EA002568
     K05C38V 2C2009 12 19.48555105 16 34.451+03 01 27.84         22.5 R EA002568
     K05C38V 2C2009 12 19.49015005 16 34.018+03 01 28.05         22.4 R EA002568

Observer details:
568 Mauna Kea.  Observers M. Micheli, G. T. Elliott, M. Ishiguro, D. J. Tholen.
    Measurer D. J. Tholen.  2.24-m University of Hawaii reflector.

First and last observations above in comparison with prediction:
Residuals in seconds of arc (or two decimals in degrees), reference and Delta-T
091209 568 0.05+ 0.00+    091219 568 0.05+ 0.00+    MPO 77812   -0.11 day

Orbital elements:
2005 CV38                                                Earth MOID = 0.1631 AU
Epoch 2010 Jan. 4.0 TT = JDT 2455200.5                  MPC
M 287.69399              (2000.0)            P               Q
n   0.37934432     Peri.   62.42398     -0.86347942     +0.49151518
a   1.8899355      Node   146.65793     -0.50400612     -0.83213071
e   0.4366450      Incl.   11.88626     -0.01952227     -0.25684881
P   2.60           H   20.2           G   0.15           U   1
Residuals in seconds of arc
050209 704  0.2-  0.0     050214 J95  0.2-  0.5+    050406 461  0.3-  0.3+
050209 704  0.8-  0.7+    050228 A48  0.6+  0.1+    050406 461  0.2+  0.4+
050209 704  0.2-  0.7+    050228 A48  0.3-  0.2+    050512 448  0.8+  1.0+
050210 I77  0.4+  0.8-    050228 A48  0.1-  0.7+    050512 448  0.1+  0.2+
050210 I77  0.6+  0.5-    050301 448  0.1-  0.4-    050512 448  0.2+  0.6+
050210 I77  0.7-  0.3-    050301 703  0.5-  1.1-    050526 941  0.5+  0.1+
050210 I77  0.2-  0.2-    050301 703  0.4-  0.5-    050526 941  0.5+  0.2-
050210 734  0.1+  0.5-    050301 703  0.2-  1.1-    050526 941  0.4+  0.1-
050210 734  0.5-  1.3+    050301 703  0.6-  0.2-    050526 941  0.2+  0.5-
050210 734  0.3-  0.5+    050301 448  1.8-  1.0-    050526 941  0.2+  0.4-
050210 649  0.1-  0.3-    050304 246  0.6+  0.2+    050613 703  1.4-  0.4-
050210 649  0.1+  0.2-    050304 246  0.6+  0.2+    050613 703  0.7-  0.4-
050210 649  0.3+  0.2-    050304 246  0.1+  0.3-    050613 703  0.5-  0.3+
050210 649  0.5+  0.1+    050304 246  0.2+  0.4-    050613 703  0.8+  0.9+
050210 F65  0.0   0.3-    050304 246  0.2-  0.2+    050613 703  1.0-  0.3+
050210 F65  0.4-  0.7-    050304 941  1.0+  0.2-    050613 703  0.3+  1.1+
050210 F65  0.1+  0.3-    050304 941  0.8+  0.4+    050613 703  0.7-  0.6-
050210 F65  0.3-  0.0     050304 941  0.8+  0.0     050613 703  0.0   1.1+
050210 F65  0.2-  0.2-    050304 941  0.5+  0.3+    091209 568  0.1+  0.0
050210 F65  0.3+  0.1-    050307 673  0.1+  0.2+    091209 568  0.2+  0.0
050210 F65  0.1-  0.0     050307 673  0.1+  0.4+    091219 568  0.1-  0.0
050214 J95  0.6-  0.7-    050307 673  0.3+  0.2+    091219 568  0.1-  0.1+
050214 J95  0.7+  0.5+    050307 673  0.4+  0.2-

Ephemeris:
2005 CV38                a,e,i = 1.89, 0.44, 12                  q = 1.0647
Date    TT    R. A. (2000) Decl.     Delta      r     Elong.  Phase     V
2009 12 25    05 08.25   +03 10.2    1.112    2.043   154.3    12.1    22.7
2010 01 04    04 54.15   +03 48.2    1.108    1.992   144.5    16.6    22.8
2010 01 14    04 42.80   +04 52.3    1.126    1.940   133.6    21.5    22.9
2010 01 24    04 35.37   +06 17.3    1.160    1.886   123.0    26.0    23.1
2010 02 03    04 32.38   +07 56.7    1.205    1.831   113.0    29.7    23.2

Gareth V. Williams           (C) Copyright 2010 MPC           M.P.E.C. 2010-A02

Read MPEC 2010-A01 Read MPEC 2010-A03


MPEC number:

Enter an MPEC number in one of the following forms:

  • 1997-B01 (the full form)
  • J97B01 (the packed version of the full form)
  • B01 (the abbreviated form)

Valid HTML 4.01!